Find Local Weather

World > North America > United States > North Carolina

Asheville, North Carolina Regional Weather

Lat: 35.57N, Lon: 82.55W
Wx Zone: NCZ053
Feedback
Expires:201807181000;;658455
ASUS42 KRAH 180910
RWRRAH
NORTH CAROLINA WEATHER ROUNDUP
NATIONAL WEATHER SERVICE RALEIGH NC
500 AM EDT WED JUL 18 2018

NOTE: "FAIR" INDICATES FEW OR NO CLOUDS BELOW 12,000 FEET WITH NO
SIGNIFICANT WEATHER AND/OR OBSTRUCTIONS TO VISIBILITY.


NCZ001-053-055-056-065-067-181000-
WESTERN NORTH CAROLINA
  
CITY           SKY/WX    TMP DP  RH WIND       PRES   REMARKS
ASHEVILLE        N/A     71  68  90 N6        30.03S                  
JEFFERSON      FAIR      64  60  89 N3        30.07S                  
MORGANTON      FAIR      68  68 100 NW3       29.99S                  
HICKORY        FAIR      72  69  90 N3        29.94F                  
RUTHERFORDTON  NOT AVBL                                               
MOUNT AIRY     FAIR      71  67  86 CALM      29.97S                  
BOONE          FAIR      65  63  93 W10       30.08S                  
$$
 

SKY/WX - Weather  TMP - Temperature  DP - Dewpoint  RH - Relative Humidity
WIND - Wind Direction/Speed PRES - Barometric Pressure